Flag for Germany Weather past 2 weeks in Trier, Rhineland-Palatinate, Germany

Now
36 °F

Clear.


Feels Like: 33 °F
Forecast: 33 / 47 °F
Wind: 3 mph from North

Location: Trier-Petrisberg

Current Time: Mar 5, 2015 at 4:30:49 AM

Latest Report: Mar 5, 2015 at 4:00 AM


Visibility: 25 mi

Pressure: 30.58 "Hg

Humidity: 85%

Dew point: 32 °F

Location of TrierLocation

Historic Weather in Trier — Graph

°F

Trier temperature yesterday

Maximum temperature yesterday: 43 °F (at 3:00 PM)
Minimum temperature yesterday: 34 °F (at 7:00 AM)
Average temperature yesterday: 38 °F

Past Weeks' High & Low Weather Summary

 TemperatureHumidityPressure
High51 °F (Feb 20, 3:00 PM)100% (Feb 18, 6:00 AM)30.76 "Hg (Feb 18, 6:00 AM)
Low28 °F (Feb 28, 8:00 AM)48% (Mar 2, 1:00 PM)29.44 "Hg (Feb 21, 5:00 AM)
Average39 °F84%30.01 "Hg
* Reported Feb 18 3:00 AM — Mar 5 3:00 AM, Trier, Weather by CustomWeather, © 2015

Note: Actual official high and low records may vary slightly from our data, if they occured in-between our weather recording intervals... More about our weather records

Advertising

Trier weather history for previous 24 hours

 ConditionsComfort  
Time TempWeatherWind HumidityBarometerVisibility
3:00 AM
Thu, Mar 5
36 °FDrizzle. Overcast.2 mph87%30.57 "Hg12 mi
2:00 AM36 °FPassing clouds.1 mph84%30.57 "Hg19 mi
1:00 AM38 °FOvercast.1 mph82%30.55 "Hg19 mi
12:00 AM37 °FOvercast.1 mph81%30.53 "Hg19 mi
11:00 PM
Wed, Mar 4
37 °FPassing clouds.2 mph82%30.52 "Hg17 mi
10:00 PM36 °FPassing clouds.3 mph87%30.50 "Hg14 mi
9:00 PM38 °FPassing clouds.2 mph78%30.48 "Hg22 mi
8:00 PM38 °FPassing clouds.2 mph78%30.46 "Hg28 mi
7:00 PM39 °FPassing clouds.2 mph78%30.44 "Hg31 mi
6:00 PM40 °FPassing clouds.2 mph81%30.40 "Hg37 mi
5:00 PM43 °FOvercast.3 mph68%30.36 "Hg34 mi
4:00 PM42 °FOvercast.5 mph66%30.36 "Hg37 mi
3:00 PM43 °FOvercast.6 mph68%30.34 "Hg31 mi
2:00 PM43 °FOvercast.7 mph72%30.34 "Hg31 mi
1:00 PM41 °FPartly sunny.6 mph72%30.35 "Hg25 mi
12:00 PM41 °FOvercast.6 mph77%30.35 "Hg22 mi
11:00 AM38 °FOvercast.5 mph80%30.36 "Hg22 mi
10:00 AM36 °FOvercast.5 mph85%30.34 "Hg17 mi
9:00 AM36 °FOvercast.6 mph87%30.33 "Hg17 mi
8:00 AM34 °FPartly sunny.6 mph93%30.31 "Hg16 mi
7:00 AM34 °FPassing clouds.5 mph91%30.29 "Hg16 mi
6:00 AM35 °FPassing clouds.5 mph88%30.27 "Hg17 mi
5:00 AM37 °FOvercast.5 mph86%30.26 "Hg22 mi
4:00 AM37 °FOvercast.5 mph86%30.24 "Hg22 mi
Weather by CustomWeather, © 2015

See weather overviewHow to use our weather pages